Air Resources Laboratory banner image
Air Resources Laboratory web site National Oceanic and Atmospheric Administration (NOAA)

ky roundup


Office: LMK

ASUS43 KLMK 161602
RWRKY
KENTUCKY REGIONAL WEATHER ROUNDUP
NATIONAL WEATHER SERVICE LOUISVILLE KY
1200 PM EDT MON JUL 16 2018

NOTE "FAIR" INDICATES FEW OR NO CLOUDS BELOW 12,000 FEET
WITH NO SIGNIFICANT WEATHER AND/OR OBSTRUCTIONS TO VISIBILITY.

KYZ001>023-026-027-061>063-070>075-161700-
WESTERN AND SOUTH CENTRAL KENTUCKY

CITY           SKY/WX    TMP DP  RH WIND       PRES   REMARKS
PADUCAH        FAIR      86  76  71 VRB3      29.99S HX  96
HENDERSON      FAIR      83  76  79 VRB3      29.99F HX  91
OWENSBORO      CLOUDY    79  74  84 CALM      30.00S
HOPKINSVILLE   FAIR      84  75  74 W6        30.02R HX  92
BOWLING GREEN  CLOUDY    80  74  81 SW7       30.02S
GLASGOW        NOT AVBL
$$

KYZ024-025-028>034-038-045-046-053-161700-
NORTH CENTRAL KENTUCKY

CITY           SKY/WX    TMP DP  RH WIND       PRES   REMARKS
LOUISVILLE/SDF CLOUDY    77  73  87 SW9       29.99S
LOUISVILLE/LOU LGT RAIN  76  75  97 SW6       30.00R
FORT KNOX      CLOUDY    75  74  95 W8        30.01S
$$

KYZ035>037-039>044-047>052-055>060-089>105-161700-
NORTHEAST KENTUCKY

CITY           SKY/WX    TMP DP  RH WIND       PRES   REMARKS
LEXINGTON      CLOUDY    81  72  74 S12       30.02S
COVINGTON      PTSUNNY   80  71  74 SW7       30.00S
FRANKFORT      LGT RAIN  79  74  84 SW6       29.99F
$$

KYZ054-064>069-076>088-106>120-161700-
SOUTHEAST KENTUCKY

CITY           SKY/WX    TMP DP  RH WIND       PRES   REMARKS
JACKSON        CLOUDY    79  73  82 S5        30.07S
LONDON         PTSUNNY   82  72  71 SW7       30.07R
SOMERSET       NOT AVBL
MIDDLESBORO    FAIR      82  73  72 SE3       30.08S
MONTICELLO     PTSUNNY   83  74  74 MISG      30.07S
$$



ASUS43 KLMK 161610
RWRKY
KENTUCKY REGIONAL WEATHER ROUNDUP
NATIONAL WEATHER SERVICE LOUISVILLE KY
1200 PM EDT MON JUL 16 2018

NOTE "FAIR" INDICATES FEW OR NO CLOUDS BELOW 12,000 FEET
WITH NO SIGNIFICANT WEATHER AND/OR OBSTRUCTIONS TO VISIBILITY.

KYZ001>023-026-027-061>063-070>075-161700-
WESTERN AND SOUTH CENTRAL KENTUCKY

CITY           SKY/WX    TMP DP  RH WIND       PRES   REMARKS
PADUCAH        FAIR      86  76  71 VRB3      29.99S HX  96
HENDERSON      FAIR      83  76  79 VRB3      29.99F HX  91
OWENSBORO      CLOUDY    79  74  84 CALM      30.00S
HOPKINSVILLE   FAIR      84  75  74 W6        30.02R HX  92
BOWLING GREEN  CLOUDY    80  74  81 SW7       30.02S
GLASGOW        CLOUDY    81  72  75 W8        30.03S
$$

KYZ024-025-028>034-038-045-046-053-161700-
NORTH CENTRAL KENTUCKY

CITY           SKY/WX    TMP DP  RH WIND       PRES   REMARKS
LOUISVILLE/SDF CLOUDY    77  73  87 SW9       29.99S
LOUISVILLE/LOU LGT RAIN  76  75  97 SW6       30.00R
FORT KNOX      CLOUDY    75  74  95 W8        30.01S
$$

KYZ035>037-039>044-047>052-055>060-089>105-161700-
NORTHEAST KENTUCKY

CITY           SKY/WX    TMP DP  RH WIND       PRES   REMARKS
LEXINGTON      CLOUDY    81  72  74 S12       30.02S
COVINGTON      PTSUNNY   80  71  74 SW7       30.00S
FRANKFORT      LGT RAIN  78  75  90 SW7       30.00S FOG
$$

KYZ054-064>069-076>088-106>120-161700-
SOUTHEAST KENTUCKY

CITY           SKY/WX    TMP DP  RH WIND       PRES   REMARKS
JACKSON        CLOUDY    79  73  82 S5        30.07S
LONDON         PTSUNNY   82  72  71 SW7       30.07R
SOMERSET       PTSUNNY   79  72  78 SW5       30.06S
MIDDLESBORO    FAIR      82  73  72 SE3       30.08S
MONTICELLO     PTSUNNY   83  74  74 MISG      30.07S
$$